SL-8 R/B

Satellite information

Favourite Embed

Satellite Type and Status

ROCKET BODYIN ORBIT

Key statistics

Satellite SL-8 R/B at a glance.

Uptime

15464

Days in orbit

Revolutions

≈ 13.8

Per day

Orbit

LEO

Low Earth Orbit

Inclination

83.0

Latest

Satellite identification and parameters

Extended collection of information and parameters for SL-8 R/B.

Object identification

Identified? True

Debris? False

Object name: SL-8 R/B

International designator: 1983-042B

Object number (NORAD): 14059

Object ID (CCSDS): 14059

Country: COMMONWEALTH OF INDEPENDENT STATES (CIS)

Current information (Y/N): Y

RCS size: LARGE

Orbital parameters

Period: 104.418 minutes

Inclination: 82.9765 deg

SMA: 7345.293 km

Apoapsis: 999.289 km

Periapsis: 935.027 km

RAAN: 352.5737 deg

Eccentricy: 0.00437437

Argument of periapsis: 110.7196 deg

Mean anomaly: 249.8659 deg

Mean motion: 13.79078734 rev/day

Mean motion (dot): 0.00000081 rev/day2

B* drag term: 0.000063655869 1/REarth

Two-line elements (TLE)

Creation date: Sept. 6, 2025, 2:09 a.m.

Reference frame: TEME

Reference center: EARTH

Epoch: Sept. 5, 2025, 8:07 p.m. UTC

TLE line 0: 0 SL-8 R/B

TLE line 1: 1 14059U 83042B 25248.83857512 .00000081 00000-0 63656-4 0 9995

TLE line 2: 2 14059 82.9765 352.5737 0043744 110.7196 249.8659 13.79078734129258

Live tracking on map

Real-time ground track for satellite SL-8 R/B.

In-orbit conjunctions

A list of the most updated potential collisions computed for object SL-8 R/B.

Target Orbit TCA Probability of collision Miss distance Type
COSMOS 1375 DEB LEO 2025-08-30 11:12:20 0.0004808644 388.0 (m) DEBRIS
SL-14 DEB LEO 2025-01-28 23:25:39 0.0002442865 114.0 (m) DEBRIS

Associated space launch

Navigation satellite providing location information for the Tsiklon-B navigation system

SL-8 R/B was lifted into orbit during the mission ‘Kosmos-3M | Parus 38’, on board a Kosmos-3M space rocket.

The launch took place on May 6, 1983, 3 a.m. from 132/2.

For more information about the launch, click the button.

Launch to space Kosmos-3M | Parus 38
Kosmos-3M | Parus 38

Agency: N/A

Status: Launch Successful

Launch date: May 6, 1983, 3 a.m. UTC

Rocket: Kosmos-3M

Launch pad: 132/2

Location: Plesetsk Cosmodrome, Russian Federation

...

Latest news about this satellite

There are no fresh news available about this satellite. Check back as we update our databases every day.


Newsletter sign-up

Weekly statistics, charts and insights to help you stay on top of the space industry.